* Astronomy

Members Login
Username 
 
Password 
    Remember Me  
Post Info TOPIC: Asteroid 2008 CB22


L

Posts: 131433
Date:
Asteroid 2008 CB22
Permalink  
 


Orbital elements:
2008 CB22                                           PHA, Earth MOID = 0.0496 AU
Epoch 2012 Mar. 14.0 TT = JDT 2456000.5                 MPC
M  59.02150              (2000.0)            P               Q
n   0.27173506     Peri.   33.12666     +0.09784253     -0.99021116
a   2.3606898      Node    51.45846     +0.88318196     +0.04029130
e   0.6558106      Incl.    7.31167     +0.45871174     +0.13363561
P   3.63           H   19.7           G   0.15           U   1

MPEC 2012 - J04



__________________
Page 1 of 1  sorted by
 
Quick Reply

Please log in to post quick replies.



Create your own FREE Forum
Report Abuse
Powered by ActiveBoard